Wind_Speed
17 16 17 17 19 17 15 19 21 24 20 21 22 21 24 23 23 25 24 25 25 27 29 28 22 19 15 16 16 19 21 21 22 23 24 25 25 26 26 25 25 25 24 22 22 23 23 22 22
13 14 15 17 14 15 18 18 19 19 18 20 21 20 22 22 23 23 24 26 28 28 29 28 28 28 27 24 22 22 22 23 24 24 25 26 26 27 28 28 28 27 26 26 25 24 25 23 23
11 12 15 17 13 14 18 19 14 17 15 16 19 21 23 23 24 24 25 26 28 29 31 30 30 31 33 31 29 26 24 24 25 27 27 27 28 29 29 29 30 30 28 27 27 27 27 26 24
8 9 10 11 1 5 12 10 11 14 16 17 16 16 18 20 22 23 25 27 28 28 30 32 30 30 32 34 32 31 27 26 25 28 29 29 29 29 30 31 31 32 31 31 29 29 28 27 26
6 6 5 5 5 3 6 12 14 11 8 5 4 5 4 6 8 13 17 19 26 31 32 30 30 32 31 32 34 32 31 30 29 28 29 30 30 30 31 32 32 33 34 34 33 31 31 29 28
4 2 2 3 3 4 5 6 8 8 8 7 6 7 8 8 9 10 15 20 21 24 29 31 30 32 34 35 35 35 33 34 35 33 31 32 33 33 33 35 35 35 36 36 36 34 32 32 31
5 3 1 1 1 3 6 7 8 7 8 10 7 5 5 4 6 10 11 13 19 20 22 26 30 32 34 35 37 36 36 37 39 38 36 34 35 36 36 37 37 37 38 39 39 39 37 35 34
6 4 2 1 1 1 1 3 4 3 3 3 2 3 4 5 8 10 12 13 12 13 19 24 27 29 32 35 36 38 37 37 41 42 42 41 40 38 38 38 40 40 40 40 41 41 41 39 38
8 6 4 3 3 3 4 4 3 3 4 3 4 6 8 10 12 13 14 14 15 17 19 21 24 26 29 32 35 39 39 39 39 37 39 43 47 45 43 42 42 42 42 42 43 43 43 42 41
10 9 8 6 6 6 6 6 6 7 8 7 10 12 13 14 14 14 15 17 17 18 21 24 27 30 34 36 37 38 40 40 42 44 40 38 38 45 50 48 46 47 48 47 46 46 46 47 44
13 12 11 11 10 10 9 10 10 10 12 11 15 15 14 14 14 16 19 21 24 28 30 32 35 38 40 42 43 44 44 44 44 46 49 46 45 42 49 45 52 51 51 52 50 50 50 49 49
14 14 14 14 14 15 15 15 14 14 15 15 16 15 15 17 18 20 24 26 30 31 33 36 41 45 49 52 55 53 51 51 51 51 52 53 52 47 44 49 50 44 51 54 54 54 53 52 53
15 15 16 17 17 18 17 17 15 17 15 16 17 18 18 21 23 28 30 34 35 38 41 44 47 49 52 57 61 62 63 60 58 58 58 59 55 56 52 61 43 46 53 55 56 59 57 57 55
17 17 18 19 20 20 19 18 15 18 19 18 19 20 22 25 28 32 35 39 42 46 49 51 53 58 58 58 59 59 66 68 67 65 65 65 63 61 62 56 63 55 46 54 61 62 62 60 59
20 20 20 21 22 21 20 19 17 19 20 22 23 23 26 29 33 38 43 47 51 55 59 62 62 60 53 50 49 50 49 59 71 74 72 71 71 69 66 64 60 61 59 45 44 57 62 63 62
22 23 23 23 23 21 20 19 20 22 22 25 26 26 29 34 38 43 49 53 58 63 65 56 47 42 42 42 44 48 50 51 53 57 74 80 77 77 74 71 69 67 64 68 75 58 56 59 64
25 25 26 25 23 22 23 21 23 23 23 27 26 29 33 37 41 47 53 57 64 61 46 38 36 37 40 42 44 47 49 53 56 59 60 62 71 81 82 79 76 75 72 70 72 72 75 62 64
26 27 26 26 24 25 24 23 25 23 22 28 29 31 35 38 43 50 56 63 52 38 33 34 37 38 41 42 43 43 44 48 55 59 61 64 67 69 73 80 85 82 80 76 72 59 71 74 63
27 27 26 26 26 25 25 22 28 23 24 26 30 32 35 40 46 54 56 42 32 30 31 34 38 40 41 43 45 49 49 53 59 61 63 65 66 69 73 75 75 84 86 84 81 73 65 67 65
28 27 26 26 27 26 25 22 26 26 27 28 29 31 36 41 49 47 38 31 31 34 39 40 39 39 42 44 43 45 48 52 50 58 66 68 69 70 70 73 77 79 80 89 86 80 78 63 72
30 28 26 26 27 26 24 22 23 25 26 27 28 32 37 43 43 36 36 38 38 41 38 36 38 42 45 48 48 49 49 51 50 48 52 59 67 74 76 79 80 80 81 81 83 91 88 85 72
30 28 26 26 27 26 25 24 20 23 23 25 27 32 38 41 38 37 40 39 41 39 38 39 42 44 50 52 53 54 52 53 53 50 49 53 59 62 68 74 83 89 86 85 84 81 91 89 72
28 28 26 25 25 25 24 26 19 22 23 24 27 33 38 41 39 37 39 39 39 39 39 40 46 50 53 55 56 56 56 55 55 52 51 55 59 64 69 72 76 83 92 95 89 84 83 93 89
28 29 28 26 25 26 24 25 20 23 22 25 28 33 38 39 37 35 37 38 37 39 43 47 51 55 55 55 55 56 55 57 55 53 55 58 63 69 74 79 82 83 87 91 100 94 86 86 96
29 28 28 28 24 25 22 24 22 24 23 24 27 32 36 36 38 35 36 35 39 43 48 52 54 55 55 55 53 53 55 57 52 55 55 60 64 64 65 66 72 79 83 86 89 99 97 88 89
30 29 27 29 25 23 21 22 22 24 24 23 27 31 32 35 35 34 35 40 45 47 50 51 51 49 52 52 51 50 55 51 52 58 60 63 66 67 66 65 62 65 77 81 85 87 95 94 86
28 28 28 28 27 26 23 20 21 24 23 23 26 29 30 33 34 35 39 41 45 46 49 50 49 50 51 51 48 50 53 48 54 61 67 72 67 63 60 60 63 61 62 78 82 79 84 91 88
30 29 28 27 30 27 25 20 19 24 21 22 24 29 31 33 34 37 41 45 47 48 50 50 49 50 49 45 45 50 46 49 56 63 64 58 47 50 53 58 61 60 59 62 69 74 76 83 87
31 29 28 29 29 30 26 18 21 25 22 22 25 28 30 33 34 40 44 48 48 51 48 47 48 49 46 42 43 47 43 47 52 56 56 47 44 45 43 45 46 46 50 55 61 68 65 74 80
33 30 31 30 29 28 26 18 22 25 23 21 24 28 30 33 36 41 45 48 50 49 45 45 47 46 44 39 41 44 39 48 51 55 52 44 42 40 40 37 32 32 35 42 46 55 58 62 69
Wind_Direction
281 299 307 309 264 245 235 229 230 238 239 243 246 248 252 253 255 255 253 247 245 246 246 249 256 251 248 246 254 253 248 243 238 239 240 240 239 242 247 249 246 246 246 243 244 243 244 242 243
289 303 309 309 280 231 227 228 221 232 238 246 248 246 251 255 256 252 255 254 251 248 250 249 252 254 259 257 254 261 261 256 252 244 242 240 242 242 241 245 247 246 248 248 247 250 249 245 244
291 307 312 304 281 226 224 230 237 251 250 245 248 249 251 248 248 252 251 251 251 251 248 248 249 253 259 262 261 259 258 257 258 254 248 246 242 242 242 242 244 247 247 247 249 249 252 251 245
289 305 320 340 244 214 228 226 223 238 247 245 250 263 261 256 254 257 260 257 254 255 254 253 248 248 252 258 260 261 256 259 255 257 255 251 249 248 244 241 242 243 246 248 246 249 250 251 251
269 303 331 349 72 117 216 207 211 218 213 203 216 228 209 195 222 243 252 258 258 258 255 253 251 251 253 254 258 258 259 257 257 252 252 254 254 250 249 247 244 242 242 244 247 246 250 251 251
247 287 352 33 31 62 84 146 194 204 210 210 201 187 192 245 259 261 266 262 261 259 261 259 257 255 254 254 253 255 254 255 256 254 249 247 248 250 250 249 247 244 242 242 243 245 247 248 249
215 185 148 108 357 54 87 121 140 153 170 172 166 171 207 234 277 301 296 313 270 264 264 267 269 267 264 258 260 259 256 256 257 258 254 250 246 244 247 249 249 247 243 242 243 244 245 247 247
201 186 192 222 275 324 49 129 151 162 167 167 151 210 250 273 281 289 292 297 300 285 273 268 269 271 270 269 267 264 261 261 258 260 259 255 253 247 247 248 248 246 247 245 244 242 244 243 246
214 224 226 227 257 262 268 271 257 254 271 279 279 263 265 268 270 276 278 280 283 287 284 280 279 279 276 273 270 267 265 266 263 259 258 261 259 251 248 246 247 248 245 245 246 244 243 241 243
234 242 247 241 243 255 259 258 249 259 262 253 246 248 247 251 259 269 277 282 284 282 283 282 281 280 279 276 273 270 268 265 261 261 253 259 258 259 250 249 247 245 247 244 243 244 243 243 242
243 250 256 255 254 255 253 258 258 256 257 254 250 248 250 261 271 277 281 285 290 293 291 287 284 284 281 278 275 273 269 266 263 260 258 261 259 252 243 255 251 247 245 245 243 241 241 241 241
245 252 255 258 257 256 257 261 263 262 261 257 264 273 276 279 285 292 292 292 290 288 289 289 286 282 280 278 276 270 266 265 262 261 260 261 256 260 257 243 249 244 248 245 246 245 243 240 240
247 254 259 262 261 260 262 264 270 266 269 265 270 273 282 285 291 294 290 287 287 290 290 288 292 294 288 281 271 265 264 261 259 259 259 259 256 257 255 251 250 243 248 249 248 246 246 244 240
248 255 262 266 265 263 263 269 269 266 272 271 269 275 281 286 290 291 294 295 294 291 290 295 290 290 292 280 275 268 260 257 258 257 256 258 257 255 256 251 257 253 253 249 250 246 242 243 243
251 258 262 264 264 263 265 270 270 269 266 269 273 278 281 286 291 294 293 293 296 296 296 294 293 294 289 277 274 275 270 261 257 257 257 255 256 256 254 253 250 252 255 244 255 250 248 240 240
256 263 263 262 262 260 263 260 267 265 267 270 274 280 284 287 291 294 298 299 297 295 296 300 290 282 278 276 276 276 275 271 266 261 260 257 256 256 255 253 252 252 246 249 252 254 251 251 242
259 261 262 261 260 258 261 261 260 264 267 274 282 285 288 290 296 302 301 299 296 300 297 290 284 283 284 284 281 278 275 274 270 266 262 259 260 257 255 255 251 251 250 249 250 253 254 252 249
261 263 263 263 260 261 262 262 263 264 272 276 286 289 291 299 303 301 302 303 304 298 295 290 293 294 291 289 286 281 280 278 275 271 267 263 259 258 257 257 254 252 249 248 249 246 253 258 254
263 264 264 264 263 262 262 261 269 280 276 280 288 293 300 304 305 306 308 309 304 299 297 296 299 300 298 292 288 282 280 283 275 267 267 265 263 261 258 257 255 255 251 249 249 248 250 245 251
263 263 263 263 265 263 263 265 269 276 285 289 295 300 303 306 308 311 309 303 301 301 301 301 298 302 306 306 302 292 284 293 286 270 263 261 261 261 260 259 258 255 251 250 249 245 242 238 246
261 260 260 264 266 264 263 264 270 277 285 292 297 300 305 310 313 306 302 302 303 302 299 301 303 306 310 311 311 306 297 299 296 281 271 267 264 262 261 259 257 256 256 249 246 246 243 244 250
260 260 260 264 266 268 270 277 273 280 286 293 298 305 311 314 311 305 305 306 302 302 303 305 306 308 310 308 308 309 305 301 300 289 280 273 267 264 263 262 260 257 254 252 247 243 242 241 240
257 258 260 263 269 274 275 280 287 283 292 295 302 310 315 316 312 308 309 306 306 307 305 309 309 308 307 306 307 307 307 302 299 291 281 278 274 271 268 263 260 258 255 252 247 242 240 236 232
256 258 261 262 268 273 276 280 291 287 293 302 310 315 319 318 315 309 308 310 309 312 312 310 309 307 305 306 305 306 305 303 298 290 286 283 280 277 274 269 263 255 252 250 248 243 237 237 231
256 259 266 266 268 275 274 280 286 288 298 307 317 317 320 320 322 312 313 313 314 313 312 311 309 307 308 305 301 303 305 302 297 294 292 292 292 292 283 281 271 256 250 248 246 243 238 234 235
255 259 263 267 269 270 273 281 283 288 301 308 316 316 321 319 321 313 310 312 312 311 311 311 312 312 311 307 306 308 309 304 304 301 299 298 297 290 285 279 275 264 249 247 245 242 238 233 232
255 257 259 267 271 273 276 282 285 288 300 305 315 316 319 317 316 313 313 312 313 314 313 315 314 312 312 309 311 312 312 308 309 308 306 302 298 292 282 277 275 270 259 246 242 241 237 231 226
253 254 259 265 272 275 283 283 283 285 294 309 316 312 314 316 318 317 317 319 319 318 318 317 316 316 314 314 315 315 317 312 312 309 309 307 302 297 290 282 277 269 259 248 238 239 235 232 225
249 253 258 262 268 277 282 278 279 282 290 309 317 317 317 318 316 317 319 322 322 320 321 319 319 321 319 317 318 320 318 318 319 324 320 318 310 305 303 292 280 267 254 242 235 232 233 229 225
245 250 255 261 267 272 278 283 282 279 292 306 313 319 319 318 317 316 320 323 322 321 323 323 325 326 324 321 322 322 322 321 324 329 332 325 320 320 314 305 289 270 253 235 226 224 226 225 222
Height
5778 5777 5774 5773 5774 5774 5776 5778 5781 5783 5787 5788 5790 5793 5794 5796 5798 5801 5801 5802 5804 5805 5807 5809 5809 5810 5812 5814 5816 5819 5819 5821 5821 5822 5823 5824 5826 5828 5829 5832 5834 5836 5838 5838 5839 5839 5840 5842 5843
5775 5774 5772 5770 5770 5770 5772 5775 5778 5779 5783 5784 5787 5788 5789 5791 5792 5794 5796 5798 5799 5801 5803 5804 5806 5806 5807 5809 5810 5813 5814 5816 5817 5818 5819 5819 5821 5822 5823 5825 5828 5830 5833 5835 5836 5836 5836 5837 5839
5773 5772 5770 5767 5764 5766 5768 5772 5775 5777 5779 5781 5783 5784 5785 5787 5788 5789 5791 5792 5794 5795 5797 5798 5800 5801 5802 5803 5804 5807 5809 5810 5812 5814 5815 5816 5816 5817 5819 5820 5821 5825 5826 5829 5831 5832 5833 5833 5834
5771 5771 5770 5766 5762 5764 5766 5770 5771 5773 5775 5777 5778 5780 5781 5783 5784 5785 5787 5788 5789 5790 5792 5794 5795 5796 5797 5797 5799 5801 5802 5804 5806 5808 5809 5809 5811 5812 5813 5814 5816 5819 5821 5823 5825 5827 5828 5829 5830
5770 5769 5768 5766 5764 5764 5765 5766 5768 5770 5772 5774 5775 5776 5777 5779 5780 5781 5782 5782 5783 5784 5785 5788 5789 5791 5792 5793 5794 5795 5796 5797 5798 5801 5802 5803 5805 5806 5807 5809 5810 5812 5815 5816 5819 5820 5822 5824 5825
5768 5767 5767 5765 5765 5765 5764 5764 5766 5768 5770 5772 5772 5772 5773 5776 5777 5778 5778 5778 5778 5778 5780 5782 5783 5785 5786 5786 5787 5788 5789 5791 5791 5792 5794 5796 5797 5799 5799 5801 5803 5805 5807 5809 5811 5813 5815 5817 5819
5766 5766 5765 5765 5765 5765 5765 5764 5766 5767 5768 5769 5770 5771 5773 5773 5775 5775 5776 5775 5775 5775 5776 5777 5778 5779 5780 5781 5781 5782 5782 5783 5785 5785 5786 5787 5789 5790 5791 5793 5795 5797 5798 5801 5803 5806 5808 5809 5810
5764 5764 5765 5765 5765 5765 5765 5765 5766 5767 5768 5769 5769 5770 5771 5771 5772 5772 5773 5772 5772 5772 5773 5773 5774 5774 5775 5776 5776 5775 5776 5776 5776 5777 5778 5778 5780 5782 5783 5784 5785 5788 5790 5791 5795 5797 5799 5801 5803
5762 5763 5763 5763 5764 5765 5765 5765 5765 5765 5765 5766 5766 5767 5768 5769 5769 5769 5769 5769 5768 5768 5768 5768 5769 5768 5769 5769 5769 5767 5768 5768 5767 5768 5769 5769 5770 5771 5773 5775 5776 5779 5780 5782 5785 5789 5790 5793 5795
5759 5760 5761 5762 5762 5763 5763 5763 5764 5764 5763 5764 5764 5764 5765 5765 5766 5766 5765 5765 5765 5765 5765 5764 5763 5761 5761 5760 5761 5760 5759 5759 5759 5758 5758 5752 5759 5761 5761 5764 5767 5768 5769 5771 5774 5777 5780 5783 5787
5756 5757 5758 5759 5760 5760 5761 5761 5761 5761 5760 5760 5760 5760 5761 5762 5762 5762 5762 5761 5761 5760 5760 5759 5757 5755 5754 5753 5752 5751 5751 5750 5750 5749 5748 5748 5750 5752 5751 5752 5754 5757 5758 5760 5762 5765 5768 5771 5776
5754 5754 5755 5756 5757 5757 5757 5758 5758 5757 5757 5757 5757 5757 5758 5758 5759 5758 5758 5757 5756 5754 5752 5751 5749 5747 5745 5744 5742 5741 5740 5739 5738 5737 5736 5736 5738 5739 5739 5741 5742 5742 5747 5749 5752 5755 5757 5759 5763
5750 5750 5751 5751 5752 5752 5753 5753 5754 5753 5753 5753 5753 5753 5753 5753 5753 5752 5751 5749 5748 5745 5743 5740 5738 5735 5733 5730 5727 5726 5725 5725 5725 5725 5724 5723 5725 5726 5730 5727 5730 5733 5735 5738 5739 5743 5745 5748 5751
5746 5746 5747 5747 5747 5747 5748 5749 5750 5749 5748 5748 5748 5748 5747 5747 5746 5744 5743 5740 5737 5733 5731 5729 5726 5722 5720 5716 5711 5710 5709 5710 5710 5710 5710 5709 5710 5712 5714 5718 5719 5720 5722 5726 5726 5728 5732 5736 5739
5741 5742 5742 5743 5742 5743 5743 5744 5745 5744 5744 5743 5743 5743 5742 5740 5738 5736 5733 5730 5725 5721 5717 5713 5710 5708 5704 5701 5699 5696 5694 5694 5695 5694 5694 5694 5694 5696 5699 5702 5707 5707 5711 5712 5713 5717 5719 5721 5726
5737 5738 5738 5738 5738 5738 5739 5740 5739 5738 5738 5737 5737 5737 5735 5732 5730 5727 5723 5718 5714 5709 5702 5698 5694 5690 5689 5688 5687 5684 5682 5680 5679 5678 5678 5678 5678 5679 5681 5686 5689 5692 5696 5698 5699 5704 5706 5708 5712
5731 5733 5732 5733 5733 5733 5734 5734 5733 5733 5733 5731 5730 5729 5727 5725 5722 5718 5713 5708 5701 5694 5689 5685 5684 5681 5679 5676 5674 5672 5669 5667 5665 5663 5662 5660 5660 5661 5662 5667 5672 5674 5679 5683 5686 5690 5691 5696 5700
5726 5726 5727 5727 5728 5727 5728 5728 5727 5727 5728 5725 5723 5722 5720 5717 5713 5708 5702 5694 5687 5682 5680 5678 5675 5672 5669 5666 5663 5660 5658 5655 5650 5647 5645 5644 5644 5643 5643 5647 5651 5656 5660 5666 5670 5673 5676 5680 5687
5720 5720 5721 5721 5721 5722 5722 5724 5719 5719 5721 5719 5716 5715 5712 5708 5704 5697 5690 5682 5677 5675 5672 5670 5667 5662 5659 5656 5651 5648 5644 5640 5635 5632 5628 5626 5625 5625 5626 5627 5630 5636 5642 5648 5652 5659 5662 5664 5670
5713 5714 5714 5714 5715 5715 5715 5717 5714 5713 5712 5711 5709 5706 5703 5699 5694 5687 5681 5676 5673 5669 5666 5661 5657 5653 5649 5644 5639 5634 5630 5625 5617 5612 5610 5608 5606 5606 5606 5607 5608 5611 5617 5627 5634 5640 5645 5648 5652
5706 5707 5708 5709 5708 5708 5709 5711 5709 5707 5705 5704 5702 5699 5695 5690 5685 5679 5674 5670 5666 5662 5657 5653 5648 5643 5637 5631 5626 5619 5613 5607 5601 5596 5593 5590 5588 5587 5586 5586 5587 5589 5592 5602 5609 5618 5625 5633 5636
5700 5701 5701 5702 5703 5703 5703 5702 5703 5700 5699 5697 5694 5691 5687 5681 5676 5671 5667 5662 5658 5653 5648 5643 5637 5631 5625 5619 5612 5606 5599 5592 5584 5579 5575 5573 5571 5569 5566 5564 5563 5565 5569 5576 5584 5591 5602 5609 5622
5695 5695 5695 5695 5696 5697 5698 5694 5697 5693 5691 5690 5687 5683 5679 5673 5668 5663 5659 5655 5650 5644 5640 5634 5628 5619 5613 5605 5598 5591 5584 5576 5568 5561 5558 5553 5550 5546 5543 5542 5540 5539 5541 5548 5555 5566 5574 5586 5601
5687 5688 5688 5689 5689 5690 5691 5689 5689 5686 5685 5682 5679 5676 5671 5665 5661 5656 5652 5647 5642 5636 5631 5624 5617 5607 5599 5591 5582 5575 5568 5560 5552 5545 5540 5534 5529 5523 5517 5513 5511 5512 5513 5517 5524 5535 5548 5556 5571
5680 5682 5682 5682 5683 5683 5683 5682 5682 5679 5677 5675 5672 5668 5664 5658 5654 5649 5644 5639 5633 5627 5620 5612 5604 5595 5585 5576 5568 5559 5551 5543 5535 5528 5521 5514 5506 5497 5489 5482 5478 5477 5481 5487 5492 5502 5518 5532 5543
5673 5675 5676 5674 5676 5677 5676 5676 5675 5672 5671 5668 5665 5661 5657 5652 5647 5642 5637 5631 5625 5617 5609 5601 5591 5582 5573 5563 5554 5545 5536 5527 5519 5512 5503 5493 5483 5473 5463 5455 5452 5448 5451 5456 5464 5473 5486 5506 5522
5667 5667 5669 5667 5667 5668 5669 5671 5669 5665 5664 5661 5658 5654 5650 5645 5640 5635 5629 5622 5615 5607 5598 5588 5580 5570 5560 5551 5542 5532 5523 5514 5507 5496 5483 5470 5457 5446 5436 5430 5425 5422 5423 5429 5438 5448 5461 5478 5499
5659 5661 5661 5661 5659 5660 5660 5662 5661 5658 5657 5655 5651 5648 5644 5639 5634 5627 5621 5613 5605 5596 5586 5577 5568 5558 5549 5540 5531 5522 5511 5503 5493 5479 5463 5448 5436 5425 5415 5406 5399 5396 5397 5403 5413 5428 5442 5457 5478
5651 5652 5654 5654 5653 5652 5652 5656 5654 5651 5650 5648 5645 5642 5637 5633 5627 5620 5613 5604 5596 5586 5576 5568 5558 5548 5538 5530 5521 5512 5501 5492 5479 5464 5448 5434 5423 5411 5398 5386 5377 5373 5376 5381 5392 5409 5424 5441 5459
5642 5645 5645 5645 5646 5646 5645 5649 5645 5643 5643 5641 5637 5635 5631 5625 5619 5612 5605 5596 5587 5577 5567 5559 5548 5539 5529 5521 5512 5502 5492 5481 5469 5454 5438 5425 5413 5399 5385 5372 5363 5360 5361 5367 5379 5394 5411 5428 5446